Terminal Aerodrome Forecast
Issued by NWS

Home | Current Version | Previous Version | Text Only | Print | Product List | Glossary On
Versions: 1 2 3 4 5 6 7 8 9 10 11 12 13 14 15 16 17 18 19 20 21 22 23 24 25 26
000
FTAK31 PANC 212328
TAFAVD
TAF
PAVD 212328Z 2200/2224 02008G14KT P6SM FEW080
      TEMPO 2200/2203 VRB05KT
     FM220600 05015G30KT P6SM SCT100
     FM221400 VRB06KT P6SM BKN060
      AMD LTD TO CLD VIS AND WIND=

USA.gov is the U.S. government's official web portal to all federal, state and local government web resources and services.